owner,sensor,date,latitude,longitude,air_pressure(mBar),qcFlag 
TABS,ioos:station:wmo:42046:1,2007-04-01T00:00:00Z,27.8903,-94.0367,1012.05,11111222 
TABS,ioos:station:wmo:42046:1,2007-04-01T00:30:00Z,27.8903,-94.0367,1012.2,11111222 
TABS,ioos:station:wmo:42046:1,2007-04-01T01:00:00Z,27.8903,-94.0367,1012.22,11111222 
TABS,ioos:station:wmo:42046:1,2007-04-01T01:30:00Z,27.8903,-94.0367,1012.61,11111222 
TABS,ioos:station:wmo:42046:1,2007-04-01T02:00:00Z,27.8903,-94.0367,1012.63,11111222 
TABS,ioos:station:wmo:42046:1,2007-04-01T02:30:00Z,27.8903,-94.0367,1012.89,11111222 
TABS,ioos:station:wmo:42046:1,2007-04-01T03:00:00Z,27.8903,-94.0367,1012.04,11111222 
TABS,ioos:station:wmo:42046:1,2007-04-01T03:30:00Z,27.8903,-94.0367,1013.89,11111222 
TABS,ioos:station:wmo:42046:1,2007-04-01T04:00:00Z,27.8903,-94.0367,1012.12,11111222 
TABS,ioos:station:wmo:42046:1,2007-04-01T04:30:00Z,27.8903,-94.0367,1013.1,11111222 
TABS,ioos:station:wmo:42046:1,2007-04-01T05:00:00Z,27.8903,-94.0367,1012.94,11111222 
TABS,ioos:station:wmo:42046:1,2007-04-01T05:30:00Z,27.8903,-94.0367,1011.9,11111222 
TABS,ioos:station:wmo:42046:1,2007-04-01T06:00:00Z,27.8903,-94.0367,1012.98,11111222 
TABS,ioos:station:wmo:42046:1,2007-04-01T06:30:00Z,27.8903,-94.0367,1011.56,11111222 
TABS,ioos:station:wmo:42046:1,2007-04-01T07:00:00Z,27.8903,-94.0367,1010.44,11111222 
TABS,ioos:station:wmo:42046:1,2007-04-01T07:30:00Z,27.8903,-94.0367,1012.03,11111222 
TABS,ioos:station:wmo:42046:1,2007-04-01T08:00:00Z,27.8903,-94.0367,1011.46,11111222 
TABS,ioos:station:wmo:42046:1,2007-04-01T08:30:00Z,27.8903,-94.0367,1012.48,11111222 
TABS,ioos:station:wmo:42046:1,2007-04-01T09:00:00Z,27.8903,-94.0367,1012.5,11111222 
TABS,ioos:station:wmo:42046:1,2007-04-01T09:30:00Z,27.8903,-94.0367,1010.88,11111222 
TABS,ioos:station:wmo:42046:1,2007-04-01T10:00:00Z,27.8903,-94.0367,1011.48,11111222 
TABS,ioos:station:wmo:42046:1,2007-04-01T10:30:00Z,27.8903,-94.0367,1012.04,11111222 
TABS,ioos:station:wmo:42046:1,2007-04-01T11:00:00Z,27.8903,-94.0367,1012.44,11111222 
TABS,ioos:station:wmo:42046:1,2007-04-01T11:30:00Z,27.8903,-94.0367,1012.44,11111222 
TABS,ioos:station:wmo:42046:1,2007-04-01T12:00:00Z,27.8903,-94.0367,1013.04,11111222 
TABS,ioos:station:wmo:42046:1,2007-04-01T12:30:00Z,27.8903,-94.0367,1014.42,11111222 
TABS,ioos:station:wmo:42046:1,2007-04-01T13:00:00Z,27.8903,-94.0367,1014.06,11111222 
TABS,ioos:station:wmo:42046:1,2007-04-01T13:30:00Z,27.8903,-94.0367,1014.85,11111222 
TABS,ioos:station:wmo:42046:1,2007-04-01T14:00:00Z,27.8903,-94.0367,1016.16,11111222 
TABS,ioos:station:wmo:42046:1,2007-04-01T14:30:00Z,27.8903,-94.0367,1016.42,11111222 
TABS,ioos:station:wmo:42046:1,2007-04-01T15:00:00Z,27.8903,-94.0367,1016.67,11111222 
TABS,ioos:station:wmo:42046:1,2007-04-01T15:30:00Z,27.8903,-94.0367,1016.88,11111222 
TABS,ioos:station:wmo:42046:1,2007-04-01T16:00:00Z,27.8903,-94.0367,1016.58,11111222 
TABS,ioos:station:wmo:42046:1,2007-04-01T16:30:00Z,27.8903,-94.0367,1016.3,11111222 
TABS,ioos:station:wmo:42046:1,2007-04-01T17:00:00Z,27.8903,-94.0367,1016.0,11111222 
TABS,ioos:station:wmo:42046:1,2007-04-01T17:30:00Z,27.8903,-94.0367,1016.8,11111222 
TABS,ioos:station:wmo:42046:1,2007-04-01T18:00:00Z,27.8903,-94.0367,1016.88,11111222 
TABS,ioos:station:wmo:42046:1,2007-04-01T18:30:00Z,27.8903,-94.0367,1015.58,11111222 
TABS,ioos:station:wmo:42046:1,2007-04-01T19:00:00Z,27.8903,-94.0367,1015.01,11111222 
TABS,ioos:station:wmo:42046:1,2007-04-01T19:30:00Z,27.8903,-94.0367,1015.56,11111222 
TABS,ioos:station:wmo:42046:1,2007-04-01T20:00:00Z,27.8903,-94.0367,1016.26,11111222 
TABS,ioos:station:wmo:42046:1,2007-04-01T20:30:00Z,27.8903,-94.0367,1015.45,11111222 
TABS,ioos:station:wmo:42046:1,2007-04-01T21:00:00Z,27.8903,-94.0367,1012.97,11111222 
TABS,ioos:station:wmo:42046:1,2007-04-01T21:30:00Z,27.8903,-94.0367,1011.89,11111222 
TABS,ioos:station:wmo:42046:1,2007-04-01T22:00:00Z,27.8903,-94.0367,1012.21,11111222 
TABS,ioos:station:wmo:42046:1,2007-04-01T22:30:00Z,27.8903,-94.0367,1012.48,11111222 
TABS,ioos:station:wmo:42046:1,2007-04-01T23:00:00Z,27.8903,-94.0367,1013.4,11111222 
TABS,ioos:station:wmo:42046:1,2007-04-01T23:30:00Z,27.8903,-94.0367,1013.82,11111222 
TABS,ioos:station:wmo:42046:1,2007-04-02T00:00:00Z,27.8903,-94.0367,1013.88,11111222 
TABS,ioos:station:wmo:42046:1,2007-04-02T00:30:00Z,27.8903,-94.0367,1013.9,11111222 
TABS,ioos:station:wmo:42046:1,2007-04-02T01:00:00Z,27.8903,-94.0367,1013.97,11111222 
TABS,ioos:station:wmo:42046:1,2007-04-02T01:30:00Z,27.8903,-94.0367,1014.34,11111222 
TABS,ioos:station:wmo:42046:1,2007-04-02T02:00:00Z,27.8903,-94.0367,1014.65,11111222 
TABS,ioos:station:wmo:42046:1,2007-04-02T02:30:00Z,27.8903,-94.0367,1015.04,11111222 
TABS,ioos:station:wmo:42046:1,2007-04-02T03:00:00Z,27.8903,-94.0367,1015.44,11111222 
TABS,ioos:station:wmo:42046:1,2007-04-02T03:30:00Z,27.8903,-94.0367,1015.6,11111222 
TABS,ioos:station:wmo:42046:1,2007-04-02T04:00:00Z,27.8903,-94.0367,1015.41,11111222 
TABS,ioos:station:wmo:42046:1,2007-04-02T04:30:00Z,27.8903,-94.0367,1015.32,11111222 
TABS,ioos:station:wmo:42046:1,2007-04-02T05:00:00Z,27.8903,-94.0367,1015.93,11111222 
TABS,ioos:station:wmo:42046:1,2007-04-02T05:30:00Z,27.8903,-94.0367,1016.24,11111222 
TABS,ioos:station:wmo:42046:1,2007-04-02T06:00:00Z,27.8903,-94.0367,1016.45,11111222 
TABS,ioos:station:wmo:42046:1,2007-04-02T06:30:00Z,27.8903,-94.0367,1016.19,11111222 
TABS,ioos:station:wmo:42046:1,2007-04-02T07:00:00Z,27.8903,-94.0367,1016.08,11111222 
TABS,ioos:station:wmo:42046:1,2007-04-02T07:30:00Z,27.8903,-94.0367,1016.0,11111222 
TABS,ioos:station:wmo:42046:1,2007-04-02T08:00:00Z,27.8903,-94.0367,1015.62,11111222 
TABS,ioos:station:wmo:42046:1,2007-04-02T08:30:00Z,27.8903,-94.0367,1015.51,11111222 
TABS,ioos:station:wmo:42046:1,2007-04-02T09:00:00Z,27.8903,-94.0367,1015.52,11111222 
TABS,ioos:station:wmo:42046:1,2007-04-02T09:30:00Z,27.8903,-94.0367,1015.4,11111222 
TABS,ioos:station:wmo:42046:1,2007-04-02T10:00:00Z,27.8903,-94.0367,1015.31,11111222 
TABS,ioos:station:wmo:42046:1,2007-04-02T10:30:00Z,27.8903,-94.0367,1015.0,11111222 
TABS,ioos:station:wmo:42046:1,2007-04-02T11:00:00Z,27.8903,-94.0367,1015.33,11111222 
TABS,ioos:station:wmo:42046:1,2007-04-02T11:30:00Z,27.8903,-94.0367,1016.03,11111222 
TABS,ioos:station:wmo:42046:1,2007-04-02T12:00:00Z,27.8903,-94.0367,1016.26,11111222 
TABS,ioos:station:wmo:42046:1,2007-04-02T12:30:00Z,27.8903,-94.0367,1016.76,11111222 
TABS,ioos:station:wmo:42046:1,2007-04-02T13:00:00Z,27.8903,-94.0367,1016.96,11111222 
TABS,ioos:station:wmo:42046:1,2007-04-02T13:30:00Z,27.8903,-94.0367,1017.28,11111222 
TABS,ioos:station:wmo:42046:1,2007-04-02T14:00:00Z,27.8903,-94.0367,1017.36,11111222 
TABS,ioos:station:wmo:42046:1,2007-04-02T14:30:00Z,27.8903,-94.0367,1017.41,11111222 
TABS,ioos:station:wmo:42046:1,2007-04-02T15:00:00Z,27.8903,-94.0367,1017.31,11111222 
TABS,ioos:station:wmo:42046:1,2007-04-02T15:30:00Z,27.8903,-94.0367,1017.29,11111222 
TABS,ioos:station:wmo:42046:1,2007-04-02T16:00:00Z,27.8903,-94.0367,1017.71,11111222 
TABS,ioos:station:wmo:42046:1,2007-04-02T16:30:00Z,27.8903,-94.0367,1017.86,11111222 
TABS,ioos:station:wmo:42046:1,2007-04-02T17:00:00Z,27.8903,-94.0367,1018.02,11111222 
TABS,ioos:station:wmo:42046:1,2007-04-02T17:30:00Z,27.8903,-94.0367,1017.83,11111222 
TABS,ioos:station:wmo:42046:1,2007-04-02T18:00:00Z,27.8903,-94.0367,1017.67,11111222 
TABS,ioos:station:wmo:42046:1,2007-04-02T18:30:00Z,27.8903,-94.0367,1017.05,11111222 
TABS,ioos:station:wmo:42046:1,2007-04-02T19:00:00Z,27.8903,-94.0367,1016.75,11111222 
TABS,ioos:station:wmo:42046:1,2007-04-02T19:30:00Z,27.8903,-94.0367,1016.58,11111222 
TABS,ioos:station:wmo:42046:1,2007-04-02T20:00:00Z,27.8903,-94.0367,1016.22,11111222 
TABS,ioos:station:wmo:42046:1,2007-04-02T20:30:00Z,27.8903,-94.0367,1015.81,11111222 
TABS,ioos:station:wmo:42046:1,2007-04-02T21:00:00Z,27.8903,-94.0367,1015.48,11111222 
TABS,ioos:station:wmo:42046:1,2007-04-02T21:30:00Z,27.8903,-94.0367,1015.43,11111222 
TABS,ioos:station:wmo:42046:1,2007-04-02T22:00:00Z,27.8903,-94.0367,1015.18,11111222 
TABS,ioos:station:wmo:42046:1,2007-04-02T22:30:00Z,27.8903,-94.0367,1015.04,11111222 
TABS,ioos:station:wmo:42046:1,2007-04-02T23:00:00Z,27.8903,-94.0367,1015.36,11111222 
TABS,ioos:station:wmo:42046:1,2007-04-02T23:30:00Z,27.8903,-94.0367,1015.71,11111222 
TABS,ioos:station:wmo:42046:1,2007-04-03T00:00:00Z,27.8903,-94.0367,1015.85,11111222 
TABS,ioos:station:wmo:42046:1,2007-04-03T00:30:00Z,27.8903,-94.0367,1015.9,11111222 
TABS,ioos:station:wmo:42046:1,2007-04-03T01:00:00Z,27.8903,-94.0367,1016.26,11111222 
TABS,ioos:station:wmo:42046:1,2007-04-03T01:30:00Z,27.8903,-94.0367,1016.44,11111222 
TABS,ioos:station:wmo:42046:1,2007-04-03T02:00:00Z,27.8903,-94.0367,1016.72,11111222 
TABS,ioos:station:wmo:42046:1,2007-04-03T02:30:00Z,27.8903,-94.0367,1016.93,11111222 
TABS,ioos:station:wmo:42046:1,2007-04-03T03:00:00Z,27.8903,-94.0367,1016.99,11111222 
TABS,ioos:station:wmo:42046:1,2007-04-03T03:30:00Z,27.8903,-94.0367,1016.67,11111222 
TABS,ioos:station:wmo:42046:1,2007-04-03T04:00:00Z,27.8903,-94.0367,1016.58,11111222 
TABS,ioos:station:wmo:42046:1,2007-04-03T04:30:00Z,27.8903,-94.0367,1016.61,11111222 
TABS,ioos:station:wmo:42046:1,2007-04-03T05:00:00Z,27.8903,-94.0367,1016.36,11111222 
TABS,ioos:station:wmo:42046:1,2007-04-03T05:30:00Z,27.8903,-94.0367,1016.3,11111222 
TABS,ioos:station:wmo:42046:1,2007-04-03T06:00:00Z,27.8903,-94.0367,1016.2,11111222 
TABS,ioos:station:wmo:42046:1,2007-04-03T06:30:00Z,27.8903,-94.0367,1015.92,11111222 
TABS,ioos:station:wmo:42046:1,2007-04-03T07:00:00Z,27.8903,-94.0367,1015.73,11111222 
TABS,ioos:station:wmo:42046:1,2007-04-03T07:30:00Z,27.8903,-94.0367,1015.92,11111222 
TABS,ioos:station:wmo:42046:1,2007-04-03T08:00:00Z,27.8903,-94.0367,1015.78,11111222 
TABS,ioos:station:wmo:42046:1,2007-04-03T08:30:00Z,27.8903,-94.0367,1015.47,11111222 
TABS,ioos:station:wmo:42046:1,2007-04-03T09:00:00Z,27.8903,-94.0367,1015.24,11111222 
TABS,ioos:station:wmo:42046:1,2007-04-03T09:30:00Z,27.8903,-94.0367,1015.08,11111222 
TABS,ioos:station:wmo:42046:1,2007-04-03T10:00:00Z,27.8903,-94.0367,1015.36,11111222 
TABS,ioos:station:wmo:42046:1,2007-04-03T10:30:00Z,27.8903,-94.0367,1015.49,11111222 
TABS,ioos:station:wmo:42046:1,2007-04-03T11:00:00Z,27.8903,-94.0367,1015.53,11111222 
TABS,ioos:station:wmo:42046:1,2007-04-03T11:30:00Z,27.8903,-94.0367,1015.73,11111222 
TABS,ioos:station:wmo:42046:1,2007-04-03T12:00:00Z,27.8903,-94.0367,1015.97,11111222 
TABS,ioos:station:wmo:42046:1,2007-04-03T12:30:00Z,27.8903,-94.0367,1016.06,11111222 
TABS,ioos:station:wmo:42046:1,2007-04-03T13:00:00Z,27.8903,-94.0367,1016.15,11111222 
TABS,ioos:station:wmo:42046:1,2007-04-03T13:30:00Z,27.8903,-94.0367,1016.23,11111222 
TABS,ioos:station:wmo:42046:1,2007-04-03T14:00:00Z,27.8903,-94.0367,1016.54,11111222 
TABS,ioos:station:wmo:42046:1,2007-04-03T14:30:00Z,27.8903,-94.0367,1016.65,11111222 
TABS,ioos:station:wmo:42046:1,2007-04-03T15:00:00Z,27.8903,-94.0367,1016.93,11111222 
TABS,ioos:station:wmo:42046:1,2007-04-03T15:30:00Z,27.8903,-94.0367,1016.87,11111222 
TABS,ioos:station:wmo:42046:1,2007-04-03T16:00:00Z,27.8903,-94.0367,1016.92,11111222 
TABS,ioos:station:wmo:42046:1,2007-04-03T16:30:00Z,27.8903,-94.0367,1017.05,11111222 
TABS,ioos:station:wmo:42046:1,2007-04-03T17:00:00Z,27.8903,-94.0367,1017.02,11111222 
TABS,ioos:station:wmo:42046:1,2007-04-03T17:30:00Z,27.8903,-94.0367,1016.86,11111222 
TABS,ioos:station:wmo:42046:1,2007-04-03T18:00:00Z,27.8903,-94.0367,1016.77,11111222 
TABS,ioos:station:wmo:42046:1,2007-04-03T18:30:00Z,27.8903,-94.0367,1016.47,11111222 
TABS,ioos:station:wmo:42046:1,2007-04-03T19:00:00Z,27.8903,-94.0367,1016.36,11111222 
TABS,ioos:station:wmo:42046:1,2007-04-03T19:30:00Z,27.8903,-94.0367,1016.1,11111222 
TABS,ioos:station:wmo:42046:1,2007-04-03T20:00:00Z,27.8903,-94.0367,1015.57,11111222 
TABS,ioos:station:wmo:42046:1,2007-04-03T20:30:00Z,27.8903,-94.0367,1015.11,11111222 
TABS,ioos:station:wmo:42046:1,2007-04-03T21:00:00Z,27.8903,-94.0367,1015.02,11111222 
TABS,ioos:station:wmo:42046:1,2007-04-03T21:30:00Z,27.8903,-94.0367,1014.75,11111222 
TABS,ioos:station:wmo:42046:1,2007-04-03T22:00:00Z,27.8903,-94.0367,1014.68,11111222 
TABS,ioos:station:wmo:42046:1,2007-04-03T22:30:00Z,27.8903,-94.0367,1014.47,11111222 
TABS,ioos:station:wmo:42046:1,2007-04-03T23:00:00Z,27.8903,-94.0367,1014.47,11111222 
TABS,ioos:station:wmo:42046:1,2007-04-03T23:30:00Z,27.8903,-94.0367,1014.42,11111222 
TABS,ioos:station:wmo:42046:1,2007-04-04T00:00:00Z,27.8903,-94.0367,1014.39,11111222 
TABS,ioos:station:wmo:42046:1,2007-04-04T00:30:00Z,27.8903,-94.0367,1014.78,11111222 
TABS,ioos:station:wmo:42046:1,2007-04-04T01:00:00Z,27.8903,-94.0367,1014.82,11111222 
TABS,ioos:station:wmo:42046:1,2007-04-04T01:30:00Z,27.8903,-94.0367,1015.22,11111222 
TABS,ioos:station:wmo:42046:1,2007-04-04T02:00:00Z,27.8903,-94.0367,1015.39,11111222 
TABS,ioos:station:wmo:42046:1,2007-04-04T02:30:00Z,27.8903,-94.0367,1015.31,11111222 
TABS,ioos:station:wmo:42046:1,2007-04-04T03:00:00Z,27.8903,-94.0367,1015.56,11111222 
TABS,ioos:station:wmo:42046:1,2007-04-04T03:30:00Z,27.8903,-94.0367,1015.57,11111222 
TABS,ioos:station:wmo:42046:1,2007-04-04T04:00:00Z,27.8903,-94.0367,1015.84,11111222 
TABS,ioos:station:wmo:42046:1,2007-04-04T04:30:00Z,27.8903,-94.0367,1016.27,11111222 
TABS,ioos:station:wmo:42046:1,2007-04-04T05:00:00Z,27.8903,-94.0367,1016.4,11111222 
TABS,ioos:station:wmo:42046:1,2007-04-04T05:30:00Z,27.8903,-94.0367,1016.23,11111222 
TABS,ioos:station:wmo:42046:1,2007-04-04T06:00:00Z,27.8903,-94.0367,1016.32,11111222 
TABS,ioos:station:wmo:42046:1,2007-04-04T06:30:00Z,27.8903,-94.0367,1016.3,11111222 
TABS,ioos:station:wmo:42046:1,2007-04-04T07:00:00Z,27.8903,-94.0367,1015.95,11111222 
TABS,ioos:station:wmo:42046:1,2007-04-04T07:30:00Z,27.8903,-94.0367,1016.24,11111222 
TABS,ioos:station:wmo:42046:1,2007-04-04T08:00:00Z,27.8903,-94.0367,1016.12,11111222 
TABS,ioos:station:wmo:42046:1,2007-04-04T08:30:00Z,27.8903,-94.0367,1015.76,11111222 
TABS,ioos:station:wmo:42046:1,2007-04-04T09:00:00Z,27.8903,-94.0367,1015.3,11111222 
TABS,ioos:station:wmo:42046:1,2007-04-04T09:30:00Z,27.8903,-94.0367,1015.21,11111222 
TABS,ioos:station:wmo:42046:1,2007-04-04T10:00:00Z,27.8903,-94.0367,1014.98,11111222 
TABS,ioos:station:wmo:42046:1,2007-04-04T10:30:00Z,27.8903,-94.0367,1015.16,11111222 
TABS,ioos:station:wmo:42046:1,2007-04-04T11:00:00Z,27.8903,-94.0367,1015.42,11111222 
TABS,ioos:station:wmo:42046:1,2007-04-04T11:30:00Z,27.8903,-94.0367,1015.58,11111222 
TABS,ioos:station:wmo:42046:1,2007-04-04T12:00:00Z,27.8903,-94.0367,1015.6,11111222 
TABS,ioos:station:wmo:42046:1,2007-04-04T12:30:00Z,27.8903,-94.0367,1015.96,11111222 
TABS,ioos:station:wmo:42046:1,2007-04-04T13:00:00Z,27.8903,-94.0367,1016.47,11111222 
TABS,ioos:station:wmo:42046:1,2007-04-04T13:30:00Z,27.8903,-94.0367,1016.34,11111222 
TABS,ioos:station:wmo:42046:1,2007-04-04T14:00:00Z,27.8903,-94.0367,1016.63,11111222 
TABS,ioos:station:wmo:42046:1,2007-04-04T14:30:00Z,27.8903,-94.0367,1016.75,11111222 
TABS,ioos:station:wmo:42046:1,2007-04-04T15:00:00Z,27.8903,-94.0367,1017.0,11111222 
TABS,ioos:station:wmo:42046:1,2007-04-04T15:30:00Z,27.8903,-94.0367,1017.04,11111222 
TABS,ioos:station:wmo:42046:1,2007-04-04T16:00:00Z,27.8903,-94.0367,1017.14,11111222 
TABS,ioos:station:wmo:42046:1,2007-04-04T16:30:00Z,27.8903,-94.0367,1016.6,11111222 
TABS,ioos:station:wmo:42046:1,2007-04-04T17:00:00Z,27.8903,-94.0367,1017.05,11111222 
TABS,ioos:station:wmo:42046:1,2007-04-04T17:30:00Z,27.8903,-94.0367,1017.3,11111222 
TABS,ioos:station:wmo:42046:1,2007-04-04T18:00:00Z,27.8903,-94.0367,1017.56,11111222 
TABS,ioos:station:wmo:42046:1,2007-04-04T18:30:00Z,27.8903,-94.0367,1016.28,11111222 
TABS,ioos:station:wmo:42046:1,2007-04-04T19:00:00Z,27.8903,-94.0367,1016.29,11111222 
TABS,ioos:station:wmo:42046:1,2007-04-04T19:30:00Z,27.8903,-94.0367,1015.38,11111222 
TABS,ioos:station:wmo:42046:1,2007-04-04T20:00:00Z,27.8903,-94.0367,1014.45,11111222 
TABS,ioos:station:wmo:42046:1,2007-04-04T20:30:00Z,27.8903,-94.0367,1014.5,11111222 
TABS,ioos:station:wmo:42046:1,2007-04-04T21:00:00Z,27.8903,-94.0367,1014.97,11111222 
TABS,ioos:station:wmo:42046:1,2007-04-04T21:30:00Z,27.8903,-94.0367,1015.15,11111222 
TABS,ioos:station:wmo:42046:1,2007-04-04T22:00:00Z,27.8903,-94.0367,1015.55,11111222 
TABS,ioos:station:wmo:42046:1,2007-04-04T22:30:00Z,27.8903,-94.0367,1015.61,11111222 
TABS,ioos:station:wmo:42046:1,2007-04-04T23:00:00Z,27.8903,-94.0367,1015.68,11111222 
TABS,ioos:station:wmo:42046:1,2007-04-04T23:30:00Z,27.8903,-94.0367,1015.8,11111222 
TABS,ioos:station:wmo:42046:1,2007-04-05T00:00:00Z,27.8903,-94.0367,1016.46,11111222 
TABS,ioos:station:wmo:42046:1,2007-04-05T00:30:00Z,27.8903,-94.0367,1016.13,11111222 
TABS,ioos:station:wmo:42046:1,2007-04-05T01:00:00Z,27.8903,-94.0367,1016.49,11111222 
TABS,ioos:station:wmo:42046:1,2007-04-05T01:30:00Z,27.8903,-94.0367,1016.88,11111222 
TABS,ioos:station:wmo:42046:1,2007-04-05T02:00:00Z,27.8903,-94.0367,1017.09,11111222 
TABS,ioos:station:wmo:42046:1,2007-04-05T02:30:00Z,27.8903,-94.0367,1016.98,11111222 
TABS,ioos:station:wmo:42046:1,2007-04-05T03:00:00Z,27.8903,-94.0367,1016.75,11111222 
TABS,ioos:station:wmo:42046:1,2007-04-05T03:30:00Z,27.8903,-94.0367,1016.59,11111222 
TABS,ioos:station:wmo:42046:1,2007-04-05T04:00:00Z,27.8903,-94.0367,1016.45,11111222 
TABS,ioos:station:wmo:42046:1,2007-04-05T04:30:00Z,27.8903,-94.0367,1016.48,11111222 
TABS,ioos:station:wmo:42046:1,2007-04-05T05:00:00Z,27.8903,-94.0367,1016.24,11111222 
TABS,ioos:station:wmo:42046:1,2007-04-05T05:30:00Z,27.8903,-94.0367,1016.31,11111222 
TABS,ioos:station:wmo:42046:1,2007-04-05T06:00:00Z,27.8903,-94.0367,1017.09,11111222 
TABS,ioos:station:wmo:42046:1,2007-04-05T06:30:00Z,27.8903,-94.0367,1016.91,11111222 
TABS,ioos:station:wmo:42046:1,2007-04-05T07:00:00Z,27.8903,-94.0367,1016.82,11111222 
TABS,ioos:station:wmo:42046:1,2007-04-05T07:30:00Z,27.8903,-94.0367,1016.65,11111222 
TABS,ioos:station:wmo:42046:1,2007-04-05T08:00:00Z,27.8903,-94.0367,1016.76,11111222 
TABS,ioos:station:wmo:42046:1,2007-04-05T08:30:00Z,27.8903,-94.0367,1016.71,11111222 
TABS,ioos:station:wmo:42046:1,2007-04-05T09:00:00Z,27.8903,-94.0367,1016.44,11111222 
TABS,ioos:station:wmo:42046:1,2007-04-05T09:30:00Z,27.8903,-94.0367,1016.17,11111222 
TABS,ioos:station:wmo:42046:1,2007-04-05T10:00:00Z,27.8903,-94.0367,1016.46,11111222 
TABS,ioos:station:wmo:42046:1,2007-04-05T10:30:00Z,27.8903,-94.0367,1016.43,11111222 
TABS,ioos:station:wmo:42046:1,2007-04-05T11:00:00Z,27.8903,-94.0367,1016.63,11111222 
TABS,ioos:station:wmo:42046:1,2007-04-05T11:30:00Z,27.8903,-94.0367,1016.87,11111222 
TABS,ioos:station:wmo:42046:1,2007-04-05T12:00:00Z,27.8903,-94.0367,1017.26,11111222 
TABS,ioos:station:wmo:42046:1,2007-04-05T12:30:00Z,27.8903,-94.0367,1017.74,11111222 
TABS,ioos:station:wmo:42046:1,2007-04-05T13:00:00Z,27.8903,-94.0367,1018.05,11111222 
TABS,ioos:station:wmo:42046:1,2007-04-05T13:30:00Z,27.8903,-94.0367,1018.48,11111222 
TABS,ioos:station:wmo:42046:1,2007-04-05T14:00:00Z,27.8903,-94.0367,1018.59,11111222 
TABS,ioos:station:wmo:42046:1,2007-04-05T14:30:00Z,27.8903,-94.0367,1018.93,11111222 
TABS,ioos:station:wmo:42046:1,2007-04-05T15:00:00Z,27.8903,-94.0367,1019.34,11111222 
TABS,ioos:station:wmo:42046:1,2007-04-05T15:30:00Z,27.8903,-94.0367,1019.43,11111222 
TABS,ioos:station:wmo:42046:1,2007-04-05T16:00:00Z,27.8903,-94.0367,1019.53,11111222 
TABS,ioos:station:wmo:42046:1,2007-04-05T16:30:00Z,27.8903,-94.0367,1019.51,11111222 
TABS,ioos:station:wmo:42046:1,2007-04-05T17:00:00Z,27.8903,-94.0367,1019.4,11111222 
TABS,ioos:station:wmo:42046:1,2007-04-05T17:30:00Z,27.8903,-94.0367,1019.09,11111222 
TABS,ioos:station:wmo:42046:1,2007-04-05T18:00:00Z,27.8903,-94.0367,1018.97,11111222 
TABS,ioos:station:wmo:42046:1,2007-04-05T18:30:00Z,27.8903,-94.0367,1019.11,11111222 
TABS,ioos:station:wmo:42046:1,2007-04-05T19:00:00Z,27.8903,-94.0367,1019.0,11111222 
TABS,ioos:station:wmo:42046:1,2007-04-05T19:30:00Z,27.8903,-94.0367,1018.51,11111222 
TABS,ioos:station:wmo:42046:1,2007-04-05T20:00:00Z,27.8903,-94.0367,1017.99,11111222 
TABS,ioos:station:wmo:42046:1,2007-04-05T20:30:00Z,27.8903,-94.0367,1017.59,11111222 
TABS,ioos:station:wmo:42046:1,2007-04-05T21:00:00Z,27.8903,-94.0367,1017.47,11111222 
TABS,ioos:station:wmo:42046:1,2007-04-05T21:30:00Z,27.8903,-94.0367,1017.39,11111222 
TABS,ioos:station:wmo:42046:1,2007-04-05T22:00:00Z,27.8903,-94.0367,1017.38,11111222 
TABS,ioos:station:wmo:42046:1,2007-04-05T22:30:00Z,27.8903,-94.0367,1017.3,11111222 
TABS,ioos:station:wmo:42046:1,2007-04-05T23:00:00Z,27.8903,-94.0367,1017.4,11111222 
TABS,ioos:station:wmo:42046:1,2007-04-05T23:30:00Z,27.8903,-94.0367,1017.4,11111222 
TABS,ioos:station:wmo:42046:1,2007-04-06T00:00:00Z,27.8903,-94.0367,1017.64,11111222 
TABS,ioos:station:wmo:42046:1,2007-04-06T00:30:00Z,27.8903,-94.0367,1017.92,11111222 
TABS,ioos:station:wmo:42046:1,2007-04-06T01:00:00Z,27.8903,-94.0367,1018.06,11111222 
TABS,ioos:station:wmo:42046:1,2007-04-06T01:30:00Z,27.8903,-94.0367,1018.46,11111222 
TABS,ioos:station:wmo:42046:1,2007-04-06T02:00:00Z,27.8903,-94.0367,1018.59,11111222 
TABS,ioos:station:wmo:42046:1,2007-04-06T02:30:00Z,27.8903,-94.0367,1019.13,11111222 
TABS,ioos:station:wmo:42046:1,2007-04-06T03:00:00Z,27.8903,-94.0367,1019.16,11111222 
TABS,ioos:station:wmo:42046:1,2007-04-06T03:30:00Z,27.8903,-94.0367,1019.23,11111222 
TABS,ioos:station:wmo:42046:1,2007-04-06T04:00:00Z,27.8903,-94.0367,1019.41,11111222 
TABS,ioos:station:wmo:42046:1,2007-04-06T04:30:00Z,27.8903,-94.0367,1019.27,11111222 
TABS,ioos:station:wmo:42046:1,2007-04-06T05:00:00Z,27.8903,-94.0367,1019.15,11111222 
TABS,ioos:station:wmo:42046:1,2007-04-06T05:30:00Z,27.8903,-94.0367,1019.17,11111222 
TABS,ioos:station:wmo:42046:1,2007-04-06T06:00:00Z,27.8903,-94.0367,1019.03,11111222 
TABS,ioos:station:wmo:42046:1,2007-04-06T06:30:00Z,27.8903,-94.0367,1019.17,11111222 
TABS,ioos:station:wmo:42046:1,2007-04-06T07:00:00Z,27.8903,-94.0367,1018.88,11111222 
TABS,ioos:station:wmo:42046:1,2007-04-06T07:30:00Z,27.8903,-94.0367,1018.65,11111222 
TABS,ioos:station:wmo:42046:1,2007-04-06T08:00:00Z,27.8903,-94.0367,1018.01,11111222 
TABS,ioos:station:wmo:42046:1,2007-04-06T08:30:00Z,27.8903,-94.0367,1018.06,11111222 
TABS,ioos:station:wmo:42046:1,2007-04-06T09:00:00Z,27.8903,-94.0367,1017.99,11111222 
TABS,ioos:station:wmo:42046:1,2007-04-06T09:30:00Z,27.8903,-94.0367,1017.93,11111222 
TABS,ioos:station:wmo:42046:1,2007-04-06T10:00:00Z,27.8903,-94.0367,1018.11,11111222 
TABS,ioos:station:wmo:42046:1,2007-04-06T10:30:00Z,27.8903,-94.0367,1017.83,11111222 
TABS,ioos:station:wmo:42046:1,2007-04-06T11:00:00Z,27.8903,-94.0367,1018.07,11111222 
TABS,ioos:station:wmo:42046:1,2007-04-06T11:30:00Z,27.8903,-94.0367,1018.33,11111222 
TABS,ioos:station:wmo:42046:1,2007-04-06T12:00:00Z,27.8903,-94.0367,1018.78,11111222 
TABS,ioos:station:wmo:42046:1,2007-04-06T12:30:00Z,27.8903,-94.0367,1018.99,11111222 
TABS,ioos:station:wmo:42046:1,2007-04-06T13:00:00Z,27.8903,-94.0367,1019.4,11111222 
TABS,ioos:station:wmo:42046:1,2007-04-06T13:30:00Z,27.8903,-94.0367,1019.97,11111222 
TABS,ioos:station:wmo:42046:1,2007-04-06T14:00:00Z,27.8903,-94.0367,1020.24,11111222 
TABS,ioos:station:wmo:42046:1,2007-04-06T14:30:00Z,27.8903,-94.0367,1020.63,11111222 
TABS,ioos:station:wmo:42046:1,2007-04-06T15:00:00Z,27.8903,-94.0367,1020.94,11111222 
TABS,ioos:station:wmo:42046:1,2007-04-06T15:30:00Z,27.8903,-94.0367,1021.21,11111222 
TABS,ioos:station:wmo:42046:1,2007-04-06T16:00:00Z,27.8903,-94.0367,1021.3,11111222 
TABS,ioos:station:wmo:42046:1,2007-04-06T16:30:00Z,27.8903,-94.0367,1021.22,11111222 
TABS,ioos:station:wmo:42046:1,2007-04-06T17:00:00Z,27.8903,-94.0367,1021.19,11111222 
TABS,ioos:station:wmo:42046:1,2007-04-06T17:30:00Z,27.8903,-94.0367,1021.09,11111222 
TABS,ioos:station:wmo:42046:1,2007-04-06T18:00:00Z,27.8903,-94.0367,1020.81,11111222 
TABS,ioos:station:wmo:42046:1,2007-04-06T18:30:00Z,27.8903,-94.0367,1020.66,11111222 